Weather History for KAVK - October, 2012

Change the Weather History Date:

Monday, October 15, 2012

  Actual Average Record
Temperature  
Mean Temperature 70 °F -  
Max Temperature 89 °F 75 °F 94 °F (1950)
Min Temperature 50 °F 49 °F 34 °F (1952)
Cooling Degree Days 4    
Growing Degree Days 20 (Base 50)    
Moisture  
Dew Point 40 °F    
Average Humidity 41    
Maximum Humidity 66    
Minimum Humidity 16    
Precipitation  
Precipitation 0.00 in - - ()
Sea Level Pressure  
Sea Level Pressure 29.96 in    
Wind  
Wind Speed 13 mph (SW)    
Max Wind Speed 22 mph    
Max Gust Speed 31 mph    
Visibility 10 miles    
Events      
Averages and records for this station are not official NWS values.
T = Trace of Precipitation, MM = Missing Value Source: NWS Daily Summary

Daily Weather History Graph

Daily Weather History Graph

Search for Another Location

Airport or City:

Trip Planner

Search our weather history database for the weather conditions in past years. The results will help you decide how hot, cold, wet, or windy it might be!

Date:

Astronomy

Oct. 15, 2012 Rise Set
Actual Time 7:42 AM CDT 6:57 PM CDT
Civil Twilight 7:16 AM CDT 7:23 PM CDT
Nautical Twilight 6:46 AM CDT 7:53 PM CDT
Astronomical Twilight 6:16 AM CDT 8:23 PM CDT
Moon 7:53 AM CDT (10/15) 7:00 PM CDT (10/15)
Length of Visible Light 12h 06m
Length of Day
11h 14m
New Moon, 0% of the Moon is Illuminated
Oct 15
New Moon
Oct 21
First Quarter
Oct 29
Full
Nov 6
Last Quarter
Nov 13
New

Hourly Weather History & Observations

Time (CDT) Temp. Dew Point Humidity Pressure Visibility Wind Dir Wind Speed Gust Speed Precip Events Conditions
12:00 AM 50.0 °F 39.2 °F 66% 30.10 in 10.0 mi WSW 9.2 mph - N/A   Mostly Cloudy
12:20 AM 53.6 °F 39.2 °F 58% 30.10 in 10.0 mi WSW 10.4 mph - N/A   Scattered Clouds
12:40 AM 53.6 °F 39.2 °F 58% 30.10 in 10.0 mi WSW 10.4 mph - N/A   Partly Cloudy
1:00 AM 51.8 °F 39.2 °F 62% 30.10 in 10.0 mi WSW 10.4 mph - N/A   Clear
1:20 AM 51.8 °F 39.2 °F 62% 30.09 in 10.0 mi WSW 8.1 mph - N/A   Clear
1:40 AM 50.0 °F 39.2 °F 66% 30.09 in 10.0 mi WSW 8.1 mph - N/A   Clear
2:00 AM 50.0 °F 39.2 °F 66% 30.09 in 10.0 mi WSW 10.4 mph - N/A   Clear
2:20 AM 50.0 °F 39.2 °F 66% 30.08 in 10.0 mi WSW 9.2 mph - N/A   Clear
2:40 AM 50.0 °F 39.2 °F 66% 30.08 in 10.0 mi WSW 10.4 mph - N/A   Clear
3:00 AM 50.0 °F 39.2 °F 66% 30.07 in 10.0 mi WSW 10.4 mph - N/A   Clear
3:20 AM 50.0 °F 39.2 °F 66% 30.06 in 10.0 mi WSW 10.4 mph - N/A   Clear
3:40 AM 50.0 °F 39.2 °F 66% 30.06 in 10.0 mi WSW 10.4 mph - N/A   Clear
4:00 AM 50.0 °F 39.2 °F 66% 30.06 in 10.0 mi WSW 10.4 mph - N/A   Clear
4:20 AM 50.0 °F 39.2 °F 66% 30.06 in 10.0 mi WSW 10.4 mph - N/A   Clear
4:40 AM 50.0 °F 39.2 °F 66% 30.06 in 10.0 mi WSW 10.4 mph - N/A   Clear
5:00 AM 51.8 °F 39.2 °F 62% 30.06 in 10.0 mi WSW 11.5 mph - N/A   Clear
5:20 AM 51.8 °F 39.2 °F 62% 30.06 in 10.0 mi WSW 10.4 mph - N/A   Clear
5:40 AM 50.0 °F 39.2 °F 66% 30.06 in 10.0 mi WSW 9.2 mph - N/A   Clear
6:00 AM 50.0 °F 39.2 °F 66% 30.05 in 10.0 mi WSW 10.4 mph - N/A   Clear
6:20 AM 50.0 °F 39.2 °F 66% 30.05 in 10.0 mi WSW 10.4 mph - N/A   Clear
7:20 AM 50.0 °F 39.2 °F 66% 30.05 in 10.0 mi WSW 9.2 mph - N/A   Clear
7:40 AM 50.0 °F 39.2 °F 66% 30.05 in 10.0 mi WSW 9.2 mph - N/A   Clear
8:20 AM 53.6 °F 41.0 °F 62% 30.05 in 10.0 mi WSW 8.1 mph - N/A   Clear
8:40 AM 57.2 °F 41.0 °F 55% 30.05 in 10.0 mi WSW 8.1 mph - N/A   Clear
9:00 AM 60.8 °F 41.0 °F 48% 30.06 in 10.0 mi SW 9.2 mph - N/A   Clear
9:35 AM 66.2 °F 41.0 °F 40% 30.05 in 10.0 mi WSW 15.0 mph - N/A   Clear
10:00 AM 71.6 °F 41.0 °F 33% 30.05 in 10.0 mi WSW 16.1 mph 21.9 mph N/A   Clear
10:20 AM 75.2 °F 41.0 °F 29% 30.04 in 10.0 mi WSW 18.4 mph 24.2 mph N/A   Clear
10:40 AM 77.0 °F 41.0 °F 28% 30.03 in 10.0 mi WSW 18.4 mph 23.0 mph N/A   Clear
11:20 AM 80.6 °F 41.0 °F 24% 30.02 in 10.0 mi WSW 18.4 mph 25.3 mph N/A   Clear
11:40 AM 82.4 °F 41.0 °F 23% 30.01 in 10.0 mi SW 20.7 mph 27.6 mph N/A   Clear
12:00 PM 82.4 °F 41.0 °F 23% 30.00 in 10.0 mi WSW 19.6 mph 24.2 mph N/A   Clear
12:20 PM 84.2 °F 41.0 °F 22% 29.99 in 10.0 mi WSW 18.4 mph 27.6 mph N/A   Clear
1:00 PM 84.2 °F 39.2 °F 20% 29.97 in 10.0 mi WSW 20.7 mph 26.5 mph N/A   Clear
1:20 PM 86.0 °F 37.4 °F 18% 29.95 in 10.0 mi WSW 17.3 mph 24.2 mph N/A   Clear
1:40 PM 86.0 °F 37.4 °F 18% 29.93 in 10.0 mi WSW 20.7 mph 31.1 mph N/A   Clear
2:00 PM 86.0 °F 39.2 °F 19% 29.92 in 10.0 mi SW 21.9 mph 27.6 mph N/A   Clear
2:20 PM 86.0 °F 37.4 °F 18% 29.90 in 10.0 mi WSW 15.0 mph 24.2 mph N/A   Clear
2:40 PM 87.8 °F 37.4 °F 17% 29.89 in 10.0 mi SW 19.6 mph 25.3 mph N/A   Clear
3:00 PM 87.8 °F 37.4 °F 17% 29.88 in 9.0 mi WSW 18.4 mph 24.2 mph N/A   Clear
3:20 PM 89.6 °F 37.4 °F 16% 29.87 in 10.0 mi SW 17.3 mph 26.5 mph N/A   Clear
3:40 PM 89.6 °F 37.4 °F 16% 29.86 in 10.0 mi SW 20.7 mph 25.3 mph N/A   Clear
4:00 PM 87.8 °F 37.4 °F 17% 29.86 in 10.0 mi SW 17.3 mph 28.8 mph N/A   Clear
4:20 PM 87.8 °F 37.4 °F 17% 29.85 in 10.0 mi SW 16.1 mph 21.9 mph N/A   Clear
4:40 PM 87.8 °F 37.4 °F 17% 29.85 in 10.0 mi SSW 16.1 mph 25.3 mph N/A   Clear
5:00 PM 86.0 °F 37.4 °F 18% 29.84 in 10.0 mi South 17.3 mph 23.0 mph N/A   Clear
5:20 PM 86.0 °F 39.2 °F 19% 29.84 in 10.0 mi SSW 21.9 mph - N/A   Clear
6:00 PM 84.2 °F 39.2 °F 20% 29.83 in 10.0 mi SSW 18.4 mph 24.2 mph N/A   Clear
6:20 PM 82.4 °F 39.2 °F 21% 29.83 in 10.0 mi SSW 13.8 mph 24.2 mph N/A   Clear
6:40 PM 78.8 °F 39.2 °F 24% 29.83 in 10.0 mi South 13.8 mph - N/A   Clear
7:00 PM 77.0 °F 39.2 °F 26% 29.83 in 10.0 mi South 12.7 mph - N/A   Clear
7:20 PM 75.2 °F 39.2 °F 27% 29.83 in 10.0 mi SSW 13.8 mph - N/A   Clear
7:40 PM 73.4 °F 39.2 °F 29% 29.83 in 10.0 mi South 12.7 mph - N/A   Clear
8:00 PM 71.6 °F 39.2 °F 31% 29.83 in 10.0 mi South 11.5 mph - N/A   Clear
8:20 PM 69.8 °F 41.0 °F 35% 29.83 in 10.0 mi South 11.5 mph - N/A   Clear
8:40 PM 68.0 °F 41.0 °F 37% 29.84 in 10.0 mi South 11.5 mph - N/A   Clear
9:00 PM 68.0 °F 41.0 °F 37% 29.84 in 10.0 mi South 12.7 mph - N/A   Clear
9:20 PM 68.0 °F 41.0 °F 37% 29.84 in 10.0 mi South 16.1 mph - N/A   Clear
9:40 PM 69.8 °F 41.0 °F 35% 29.84 in 10.0 mi SSW 16.1 mph - N/A   Clear
10:00 PM 69.8 °F 41.0 °F 35% 29.84 in 10.0 mi SSW 18.4 mph 23.0 mph N/A   Clear
10:20 PM 68.0 °F 41.0 °F 37% 29.84 in 10.0 mi SSW 16.1 mph 21.9 mph N/A   Clear
10:40 PM 68.0 °F 41.0 °F 37% 29.84 in 10.0 mi SSW 19.6 mph 24.2 mph N/A   Clear
11:00 PM 68.0 °F 41.0 °F 37% 29.84 in 10.0 mi SSW 18.4 mph 24.2 mph N/A   Clear
11:20 PM 68.0 °F 41.0 °F 37% 29.84 in 10.0 mi SSW 17.3 mph 26.5 mph N/A   Clear
11:40 PM 68.0 °F 41.0 °F 37% 29.83 in 10.0 mi SSW 18.4 mph 24.2 mph N/A   Clear